Terug naar catalogus

STARLINK-37937

ActiefCommunicatieVLEO
NORAD 69944·PAYLOAD·🇺🇸 United States

Gelanceerd Jul 9, 2026 vanaf Cape Canaveral Space Force Station

Loading…

Volgende Passages (komende 24 uur)

TLE

VersSource: CelesTrak SupGP

Epoch: Sep 15, 2026, 03:15 UTC

1 69944C 26157B   26258.13590278  .00075674  00000+0  22352-2 0  2583
2 69944  53.1601 358.6612 0001139  84.7002 191.2060 15.34361086    13

Volg STARLINK-37937 in realtime met AllMySat

Download on the App Store